Time,TemperatureF,DewpointF,PressureIn,WindDirection,WindDirectionDegrees,WindSpeedMPH,WindSpeedGustMPH,Humidity,HourlyPrecipIn,Conditions,Clouds,dailyrainin,SoftwareType,DateUTC
2013-06-07 00:00:00,55.7,54.9,30.33,SE,134,2.3,0.0,97,0.06,RA,,2.45,WeatherDisplay:10.37,2013-06-07 04:00:00,
2013-06-07 00:01:00,55.7,54.9,30.33,ENE,63,3.5,3.5,97,0.06,RA,,0.00,WeatherDisplay:10.37,2013-06-07 04:01:00,
2013-06-07 00:03:00,55.7,54.9,30.33,SE,132,2.3,2.3,97,0.06,-RA,,0.00,WeatherDisplay:10.37,2013-06-07 04:03:00,
2013-06-07 00:08:00,55.7,54.9,30.33,WSW,250,1.2,0.0,97,0.07,-RA,,0.01,WeatherDisplay:10.37,2013-06-07 04:08:00,
2013-06-07 00:13:00,55.8,55.0,30.33,SSW,196,0.0,0.0,97,0.05,-RA,,0.01,WeatherDisplay:10.37,2013-06-07 04:13:00,
2013-06-07 00:18:00,55.8,55.0,30.33,SE,138,1.2,1.2,97,0.05,-RA,,0.02,WeatherDisplay:10.37,2013-06-07 04:18:00,
2013-06-07 00:23:00,55.8,55.0,30.33,ENE,73,0.0,0.0,97,0.04,-RA,,0.02,WeatherDisplay:10.37,2013-06-07 04:23:00,
2013-06-07 00:28:00,55.8,55.0,30.33,East,96,1.0,1.0,97,0.04,-RA,,0.02,WeatherDisplay:10.37,2013-06-07 04:28:00,
2013-06-07 00:33:00,55.8,55.0,30.33,SE,133,1.0,1.0,97,0.05,-RA,,0.04,WeatherDisplay:10.37,2013-06-07 04:33:00,
2013-06-07 00:38:00,55.9,55.1,30.33,SE,141,1.2,1.2,97,0.07,-RA,,0.06,WeatherDisplay:10.37,2013-06-07 04:38:00,
2013-06-07 00:43:00,55.9,55.1,30.33,ESE,115,1.2,1.2,97,0.08,-RA,,0.07,WeatherDisplay:10.37,2013-06-07 04:43:00,
2013-06-07 00:48:00,55.9,55.1,30.33,ESE,102,1.2,1.2,97,0.08,-RA,,0.07,WeatherDisplay:10.37,2013-06-07 04:48:00,
2013-06-07 00:53:00,56.0,55.2,30.33,SSE,151,1.2,1.2,97,0.08,-RA,,0.08,WeatherDisplay:10.37,2013-06-07 04:53:00,
2013-06-07 00:58:00,56.1,55.3,30.32,SE,126,3.5,3.5,97,0.08,-RA,,0.08,WeatherDisplay:10.37,2013-06-07 04:58:00,
2013-06-07 01:03:00,56.1,55.3,30.32,ESE,118,3.5,3.5,97,0.09,-DZ,,0.09,WeatherDisplay:10.37,2013-06-07 05:03:00,
2013-06-07 01:08:00,56.1,55.3,30.32,ESE,114,2.3,2.3,97,0.08,-DZ,,0.09,WeatherDisplay:10.37,2013-06-07 05:08:00,
2013-06-07 01:13:00,56.2,55.4,30.32,SE,146,1.2,1.2,97,0.08,-DZ,,0.09,WeatherDisplay:10.37,2013-06-07 05:13:00,
2013-06-07 01:18:00,56.2,55.4,30.32,SE,128,2.0,2.0,97,0.07,-DZ,,0.09,WeatherDisplay:10.37,2013-06-07 05:18:00,
2013-06-07 01:23:00,56.2,55.4,30.32,ESE,120,1.2,1.2,97,0.07,-DZ,,0.09,WeatherDisplay:10.37,2013-06-07 05:23:00,
2013-06-07 01:28:00,56.2,55.4,30.32,ESE,113,2.3,2.3,97,0.07,-DZ,,0.09,WeatherDisplay:10.37,2013-06-07 05:28:00,
2013-06-07 01:33:00,56.3,55.5,30.32,SE,135,1.2,1.2,97,0.04,-DZ,,0.09,WeatherDisplay:10.37,2013-06-07 05:33:00,
2013-06-07 01:38:00,56.3,55.5,30.31,ESE,108,3.0,3.0,97,0.03,-DZ,,0.09,WeatherDisplay:10.37,2013-06-07 05:38:00,
2013-06-07 01:43:00,56.4,55.6,30.31,SSE,148,2.3,2.3,97,0.02,-DZ,,0.09,WeatherDisplay:10.37,2013-06-07 05:43:00,
2013-06-07 01:48:00,56.4,55.6,30.31,SE,124,3.5,3.5,97,0.02,-DZ,,0.09,WeatherDisplay:10.37,2013-06-07 05:48:00,
2013-06-07 01:53:00,56.4,55.6,30.31,SSE,149,3.5,3.5,97,0.01,-DZ,,0.09,WeatherDisplay:10.37,2013-06-07 05:53:00,
2013-06-07 01:58:00,56.5,55.7,30.31,SE,132,1.2,1.2,97,0.01,-DZ,,0.09,WeatherDisplay:10.37,2013-06-07 05:58:00,
2013-06-07 02:03:00,56.6,55.8,30.31,SE,132,2.3,2.3,97,0.01,-DZ,,0.09,WeatherDisplay:10.37,2013-06-07 06:03:00,
2013-06-07 02:08:00,56.6,55.8,30.31,SE,129,3.5,3.5,97,0.00,-DZ,,0.09,WeatherDisplay:10.37,2013-06-07 06:08:00,
2013-06-07 02:13:00,56.6,55.8,30.31,SE,126,1.2,1.2,97,0.01,-DZ,,0.10,WeatherDisplay:10.37,2013-06-07 06:13:00,
2013-06-07 02:18:00,56.7,55.9,30.31,SE,126,1.2,1.2,97,0.01,-DZ,,0.10,WeatherDisplay:10.37,2013-06-07 06:18:00,
2013-06-07 02:23:00,56.7,55.9,30.31,SE,126,0.0,0.0,97,0.01,-DZ,,0.10,WeatherDisplay:10.37,2013-06-07 06:23:00,
2013-06-07 02:28:00,56.8,56.0,30.31,SE,128,0.0,0.0,97,0.01,-DZ,,0.10,WeatherDisplay:10.37,2013-06-07 06:28:00,
2013-06-07 02:33:00,56.8,56.0,30.31,ESE,121,1.2,1.2,97,0.01,-DZ,,0.10,WeatherDisplay:10.37,2013-06-07 06:33:00,
2013-06-07 02:38:00,56.8,56.0,30.31,ESE,121,0.0,0.0,97,0.01,-DZ,,0.10,WeatherDisplay:10.37,2013-06-07 06:38:00,
2013-06-07 02:43:00,56.9,56.1,30.31,ESE,122,1.2,0.0,97,0.01,-DZ,,0.10,WeatherDisplay:10.37,2013-06-07 06:43:00,
2013-06-07 02:48:00,56.9,56.1,30.31,ESE,122,0.0,0.0,97,0.01,-DZ,,0.10,WeatherDisplay:10.37,2013-06-07 06:48:00,
2013-06-07 02:53:00,56.9,56.1,30.31,ESE,121,0.0,0.0,97,0.01,-DZ,,0.10,WeatherDisplay:10.37,2013-06-07 06:53:00,
2013-06-07 02:58:00,56.9,56.1,30.31,ESE,122,0.0,0.0,97,0.01,-DZ,,0.10,WeatherDisplay:10.37,2013-06-07 06:58:00,
2013-06-07 03:03:00,57.0,56.2,30.31,ESE,120,0.0,0.0,97,0.01,OVC,,0.10,WeatherDisplay:10.37,2013-06-07 07:03:00,
2013-06-07 03:08:00,57.0,56.2,30.31,ESE,119,0.0,0.0,97,0.01,OVC,,0.10,WeatherDisplay:10.37,2013-06-07 07:08:00,
2013-06-07 03:13:00,57.1,56.3,30.31,ESE,120,0.0,0.0,97,0.00,OVC,,0.10,WeatherDisplay:10.37,2013-06-07 07:13:00,
2013-06-07 03:18:00,57.1,56.3,30.31,ESE,120,0.0,0.0,97,0.00,OVC,,0.10,WeatherDisplay:10.37,2013-06-07 07:18:00,
2013-06-07 03:23:00,57.2,56.4,30.31,ESE,119,1.2,0.0,97,0.00,OVC,,0.10,WeatherDisplay:10.37,2013-06-07 07:23:00,
2013-06-07 03:28:00,57.2,56.4,30.31,SE,139,1.2,0.0,97,0.01,RA,,0.11,WeatherDisplay:10.37,2013-06-07 07:28:00,
2013-06-07 03:33:00,57.3,56.5,30.30,SE,139,0.0,0.0,97,0.01,RA,,0.11,WeatherDisplay:10.37,2013-06-07 07:33:00,
2013-06-07 03:38:00,57.3,56.5,30.30,SE,139,0.0,0.0,97,0.01,OVC,,0.11,WeatherDisplay:10.37,2013-06-07 07:38:00,
2013-06-07 03:43:00,57.3,56.5,30.30,SE,139,0.0,0.0,97,0.01,OVC,,0.11,WeatherDisplay:10.37,2013-06-07 07:43:00,
2013-06-07 03:48:00,57.4,56.6,30.30,SE,141,0.0,0.1,97,0.01,OVC,,0.11,WeatherDisplay:10.37,2013-06-07 07:48:00,
2013-06-07 03:53:00,57.4,56.6,30.30,South,189,2.3,2.3,97,0.01,OVC,,0.11,WeatherDisplay:10.37,2013-06-07 07:53:00,
2013-06-07 03:58:00,57.5,56.7,30.30,South,189,1.2,1.2,97,0.01,OVC,,0.11,WeatherDisplay:10.37,2013-06-07 07:58:00,
2013-06-07 04:03:00,57.5,56.7,30.30,South,189,1.2,0.0,97,0.01,-DZ,,0.11,WeatherDisplay:10.37,2013-06-07 08:03:00,
2013-06-07 04:08:00,57.5,56.7,30.30,SE,136,1.0,1.0,97,0.01,-DZ,,0.11,WeatherDisplay:10.37,2013-06-07 08:08:00,
2013-06-07 04:13:00,57.5,56.7,30.30,SE,134,1.2,0.0,97,0.01,-DZ,,0.11,WeatherDisplay:10.37,2013-06-07 08:13:00,
2013-06-07 04:18:00,57.6,56.8,30.30,SSE,148,1.2,1.2,97,0.01,-DZ,,0.11,WeatherDisplay:10.37,2013-06-07 08:18:00,
2013-06-07 04:23:00,57.6,56.8,30.29,South,170,2.3,2.3,97,0.01,-DZ,,0.11,WeatherDisplay:10.37,2013-06-07 08:23:00,
2013-06-07 04:28:00,57.7,56.9,30.29,SE,129,2.3,2.3,97,0.00,-DZ,,0.11,WeatherDisplay:10.37,2013-06-07 08:28:00,
2013-06-07 04:33:00,57.7,56.9,30.29,SSE,161,2.3,0.0,97,0.00,-DZ,,0.11,WeatherDisplay:10.37,2013-06-07 08:33:00,
2013-06-07 04:38:00,57.7,57.1,30.30,SSE,161,1.2,0.0,98,0.00,-DZ,,0.11,WeatherDisplay:10.37,2013-06-07 08:38:00,
2013-06-07 04:43:00,57.8,57.0,30.30,WSW,257,1.2,1.2,97,0.00,-DZ,,0.11,WeatherDisplay:10.37,2013-06-07 08:43:00,
2013-06-07 04:48:00,57.8,57.0,30.30,WSW,257,0.0,0.0,97,0.00,-DZ,,0.11,WeatherDisplay:10.37,2013-06-07 08:48:00,
2013-06-07 04:53:00,57.8,57.2,30.30,SW,236,1.2,1.2,98,0.00,-DZ,,0.11,WeatherDisplay:10.37,2013-06-07 08:53:00,
2013-06-07 04:58:00,57.9,57.3,30.30,West,264,1.2,0.0,98,0.00,-DZ,,0.11,WeatherDisplay:10.37,2013-06-07 08:58:00,
2013-06-07 05:03:00,57.9,57.3,30.30,SW,229,2.3,2.3,98,0.00,-DZ,,0.11,WeatherDisplay:10.37,2013-06-07 09:03:00,
2013-06-07 05:08:00,58.0,57.4,30.30,West,281,0.0,0.0,98,0.00,-DZ,,0.11,WeatherDisplay:10.37,2013-06-07 09:08:00,
2013-06-07 05:13:00,58.0,57.4,30.30,West,281,1.2,0.0,98,0.00,-DZ,,0.11,WeatherDisplay:10.37,2013-06-07 09:13:00,
2013-06-07 05:18:00,58.0,57.4,30.30,West,280,1.2,0.0,98,0.00,-DZ,,0.11,WeatherDisplay:10.37,2013-06-07 09:18:00,
2013-06-07 05:23:00,58.1,57.5,30.30,SW,222,1.2,0.0,98,0.00,-DZ,,0.11,WeatherDisplay:10.37,2013-06-07 09:23:00,
2013-06-07 05:28:00,58.1,57.5,30.30,SE,144,3.5,3.5,98,0.00,-DZ,,0.11,WeatherDisplay:10.37,2013-06-07 09:28:00,
2013-06-07 05:33:00,58.2,57.6,30.30,SE,127,1.2,1.2,98,0.00,-DZ,,0.11,WeatherDisplay:10.37,2013-06-07 09:33:00,
2013-06-07 05:38:00,58.2,57.6,30.30,ESE,110,2.0,2.0,98,0.00,-DZ,,0.11,WeatherDisplay:10.37,2013-06-07 09:38:00,
2013-06-07 05:43:00,58.3,57.7,30.30,South,187,1.2,1.2,98,0.00,-DZ,,0.11,WeatherDisplay:10.37,2013-06-07 09:43:00,
2013-06-07 05:48:00,58.3,57.7,30.30,South,176,2.3,2.3,98,0.00,-DZ,,0.11,WeatherDisplay:10.37,2013-06-07 09:48:00,
2013-06-07 05:53:00,58.3,57.5,30.30,WNW,293,1.2,1.2,97,0.00,-DZ,,0.11,WeatherDisplay:10.37,2013-06-07 09:53:00,
2013-06-07 05:59:00,58.3,57.5,30.30,SSW,200,2.3,2.3,97,0.00,-DZ,,0.11,WeatherDisplay:10.37,2013-06-07 09:59:00,
2013-06-07 06:04:00,58.3,57.5,30.30,SSW,193,1.2,1.2,97,0.00,-DZ,,0.11,WeatherDisplay:10.37,2013-06-07 10:04:00,
2013-06-07 06:09:00,58.3,57.5,30.31,South,176,1.2,1.2,97,0.00,-DZ,,0.11,WeatherDisplay:10.37,2013-06-07 10:09:00,
2013-06-07 06:14:00,58.4,57.6,30.30,South,175,0.0,0.0,97,0.00,-DZ,,0.11,WeatherDisplay:10.37,2013-06-07 10:14:00,
2013-06-07 06:19:00,58.4,57.6,30.30,ESE,114,2.3,2.3,97,0.00,-DZ,,0.11,WeatherDisplay:10.37,2013-06-07 10:19:00,
2013-06-07 06:24:00,58.4,57.6,30.30,SE,131,1.2,1.2,97,0.00,-DZ,,0.11,WeatherDisplay:10.37,2013-06-07 10:24:00,
2013-06-07 06:29:00,58.5,57.7,30.30,SE,127,1.2,1.2,97,0.00,-DZ,,0.11,WeatherDisplay:10.37,2013-06-07 10:29:00,
2013-06-07 06:34:00,58.6,57.8,30.30,SSW,192,2.3,2.3,97,0.00,-DZ,,0.11,WeatherDisplay:10.37,2013-06-07 10:34:00,
2013-06-07 06:39:00,58.6,57.8,30.30,SSE,153,3.5,3.5,97,0.00,-DZ,,0.11,WeatherDisplay:10.37,2013-06-07 10:39:00,
2013-06-07 06:44:00,58.6,57.8,30.30,South,183,2.3,2.3,97,0.00,-DZ,,0.11,WeatherDisplay:10.37,2013-06-07 10:44:00,
2013-06-07 06:49:00,58.7,57.9,30.30,SSE,153,2.3,0.0,97,0.00,-DZ,,0.11,WeatherDisplay:10.37,2013-06-07 10:49:00,
2013-06-07 06:54:00,58.7,57.9,30.30,SE,127,2.0,2.0,97,0.00,-DZ,,0.11,WeatherDisplay:10.37,2013-06-07 10:54:00,
2013-06-07 06:59:00,58.8,58.0,30.30,SSE,167,0.0,0.0,97,0.00,-DZ,,0.11,WeatherDisplay:10.37,2013-06-07 10:59:00,
2013-06-07 07:04:00,58.9,58.1,30.30,SE,137,1.0,0.0,97,0.00,OVC,,0.11,WeatherDisplay:10.37,2013-06-07 11:04:00,
2013-06-07 07:09:00,59.0,58.2,30.30,SE,137,1.2,0.0,97,0.00,OVC,,0.11,WeatherDisplay:10.37,2013-06-07 11:09:00,
2013-06-07 07:14:00,59.1,58.2,30.30,SSE,156,1.2,1.2,97,0.00,OVC,,0.11,WeatherDisplay:10.37,2013-06-07 11:14:00,
2013-06-07 07:19:00,59.2,58.3,30.31,SSE,150,2.3,2.3,97,0.00,OVC,,0.11,WeatherDisplay:10.37,2013-06-07 11:19:00,
2013-06-07 07:24:00,59.2,58.3,30.31,South,176,1.0,0.0,97,0.00,OVC,,0.11,WeatherDisplay:10.37,2013-06-07 11:24:00,
2013-06-07 07:29:00,59.2,58.3,30.31,ESE,105,2.3,2.3,97,0.00,OVC,,0.11,WeatherDisplay:10.37,2013-06-07 11:29:00,
2013-06-07 07:34:00,59.3,58.4,30.31,SSE,166,0.0,0.0,97,0.00,OVC,,0.11,WeatherDisplay:10.37,2013-06-07 11:34:00,
2013-06-07 07:39:00,59.3,58.4,30.31,SE,137,1.2,1.2,97,0.00,OVC,,0.11,WeatherDisplay:10.37,2013-06-07 11:39:00,
2013-06-07 07:44:00,59.4,58.5,30.31,SE,132,0.0,0.0,97,0.00,OVC,,0.11,WeatherDisplay:10.37,2013-06-07 11:44:00,
2013-06-07 07:49:00,59.5,58.6,30.31,SE,132,1.2,0.0,97,0.00,OVC,,0.11,WeatherDisplay:10.37,2013-06-07 11:49:00,
2013-06-07 07:54:00,59.5,58.6,30.31,SE,132,1.0,1.0,97,0.00,OVC,,0.11,WeatherDisplay:10.37,2013-06-07 11:54:00,
2013-06-07 07:59:00,59.5,58.6,30.31,SE,132,1.2,0.0,97,0.00,OVC,,0.11,WeatherDisplay:10.37,2013-06-07 11:59:00,
2013-06-07 08:04:00,59.6,58.7,30.31,SE,132,0.0,0.0,97,0.00,OVC,,0.11,WeatherDisplay:10.37,2013-06-07 12:04:00,
2013-06-07 08:09:00,59.7,58.8,30.31,SE,132,0.0,0.0,97,0.00,OVC,,0.11,WeatherDisplay:10.37,2013-06-07 12:09:00,
2013-06-07 08:14:00,59.8,58.9,30.31,SE,132,0.0,0.0,97,0.00,OVC,,0.11,WeatherDisplay:10.37,2013-06-07 12:14:00,
2013-06-07 08:19:00,59.9,59.0,30.31,SE,132,0.0,0.0,97,0.00,OVC,,0.11,WeatherDisplay:10.37,2013-06-07 12:19:00,
2013-06-07 08:24:00,60.1,59.0,30.31,SE,132,0.0,0.0,96,0.00,OVC,,0.11,WeatherDisplay:10.37,2013-06-07 12:24:00,
2013-06-07 08:29:00,60.3,59.2,30.31,SE,132,0.0,0.0,96,0.00,OVC,,0.11,WeatherDisplay:10.37,2013-06-07 12:29:00,
2013-06-07 08:34:00,60.4,59.3,30.32,SE,132,0.0,0.0,96,0.00,OVC,,0.11,WeatherDisplay:10.37,2013-06-07 12:34:00,
2013-06-07 08:39:00,60.4,59.3,30.32,SE,132,0.0,0.0,96,0.00,OVC,,0.11,WeatherDisplay:10.37,2013-06-07 12:39:00,
2013-06-07 08:44:00,60.5,59.1,30.32,SE,132,0.0,0.0,95,0.00,OVC,,0.11,WeatherDisplay:10.37,2013-06-07 12:44:00,
2013-06-07 08:49:00,60.7,59.6,30.32,SE,132,0.0,0.0,96,0.00,OVC,,0.11,WeatherDisplay:10.37,2013-06-07 12:49:00,
2013-06-07 08:54:00,60.9,59.5,30.32,SE,132,0.0,0.0,95,0.00,OVC,,0.11,WeatherDisplay:10.37,2013-06-07 12:54:00,
2013-06-07 08:59:00,61.0,59.6,30.32,SE,132,0.0,0.0,95,0.00,OVC,,0.11,WeatherDisplay:10.37,2013-06-07 12:59:00,
2013-06-07 09:04:00,61.1,59.7,30.32,SE,132,0.0,0.0,95,0.00,OVC,,0.11,WeatherDisplay:10.37,2013-06-07 13:04:00,
2013-06-07 09:09:00,61.0,59.6,30.32,SE,132,0.0,0.0,95,0.00,OVC,,0.11,WeatherDisplay:10.37,2013-06-07 13:09:00,
2013-06-07 09:14:00,61.0,59.6,30.32,SE,132,0.0,0.0,95,0.00,OVC,,0.11,WeatherDisplay:10.37,2013-06-07 13:14:00,
2013-06-07 09:19:00,60.9,59.5,30.32,SE,132,0.0,0.0,95,0.00,OVC,,0.11,WeatherDisplay:10.37,2013-06-07 13:19:00,
2013-06-07 09:24:00,61.0,59.6,30.32,SE,132,0.0,0.0,95,0.00,OVC,,0.11,WeatherDisplay:10.37,2013-06-07 13:24:00,
2013-06-07 09:29:00,61.1,60.0,30.32,SE,132,0.0,0.0,96,0.00,OVC,,0.11,WeatherDisplay:10.37,2013-06-07 13:29:00,
2013-06-07 09:34:00,61.3,60.2,30.32,SE,132,0.0,0.0,96,0.00,OVC,,0.11,WeatherDisplay:10.37,2013-06-07 13:34:00,
2013-06-07 09:39:00,61.2,59.8,30.31,SE,132,0.0,0.0,95,0.00,OVC,,0.11,WeatherDisplay:10.37,2013-06-07 13:39:00,
2013-06-07 09:44:00,61.2,60.1,30.31,SE,132,0.0,0.0,96,0.00,OVC,,0.11,WeatherDisplay:10.37,2013-06-07 13:44:00,
2013-06-07 09:49:00,60.8,59.1,30.32,NW,320,1.2,1.2,94,0.00,OVC,,0.11,WeatherDisplay:10.37,2013-06-07 13:49:00,
2013-06-07 09:54:00,60.4,59.0,30.32,NW,320,2.3,2.3,95,0.00,OVC,,0.11,WeatherDisplay:10.37,2013-06-07 13:54:00,
2013-06-07 09:59:00,60.1,58.7,30.32,West,264,1.2,1.2,95,0.00,OVC,,0.11,WeatherDisplay:10.37,2013-06-07 13:59:00,
2013-06-07 10:04:00,59.7,58.3,30.32,NW,307,2.3,2.3,95,0.00,OVC,,0.11,WeatherDisplay:10.37,2013-06-07 14:04:00,
2013-06-07 10:09:00,59.5,58.1,30.32,NW,304,1.2,1.2,95,0.00,OVC,,0.11,WeatherDisplay:10.37,2013-06-07 14:09:00,
2013-06-07 10:14:00,59.2,57.8,30.32,West,276,2.3,2.3,95,0.00,OVC,,0.11,WeatherDisplay:10.37,2013-06-07 14:14:00,
2013-06-07 10:19:00,59.1,57.7,30.32,WNW,287,0.0,0.0,95,0.00,OVC,,0.11,WeatherDisplay:10.37,2013-06-07 14:19:00,
2013-06-07 10:24:00,59.0,57.6,30.32,West,279,3.0,3.0,95,0.00,OVC,,0.11,WeatherDisplay:10.37,2013-06-07 14:24:00,
2013-06-07 10:29:00,58.9,57.8,30.32,WNW,297,2.3,2.3,96,0.00,OVC,,0.11,WeatherDisplay:10.37,2013-06-07 14:29:00,
2013-06-07 10:34:00,58.8,57.7,30.32,WNW,293,3.5,3.5,96,0.00,OVC,,0.11,WeatherDisplay:10.37,2013-06-07 14:34:00,
2013-06-07 10:39:00,58.8,57.7,30.32,WNW,299,2.3,2.3,96,0.00,OVC,,0.11,WeatherDisplay:10.37,2013-06-07 14:39:00,
2013-06-07 10:44:00,58.9,57.8,30.32,WNW,298,1.0,1.0,96,0.00,OVC,,0.11,WeatherDisplay:10.37,2013-06-07 14:44:00,
2013-06-07 10:49:00,58.9,57.8,30.32,WSW,250,1.2,1.2,96,0.00,OVC,,0.11,WeatherDisplay:10.37,2013-06-07 14:49:00,
2013-06-07 10:54:00,59.0,57.9,30.32,NW,315,1.2,1.2,96,0.00,OVC,,0.11,WeatherDisplay:10.37,2013-06-07 14:54:00,
2013-06-07 10:59:00,59.1,58.0,30.33,NW,307,2.3,2.3,96,0.00,OVC,,0.11,WeatherDisplay:10.37,2013-06-07 14:59:00,
2013-06-07 11:04:00,59.1,58.0,30.33,WNW,302,2.0,2.0,96,0.00,OVC,,0.11,WeatherDisplay:10.37,2013-06-07 15:04:00,
2013-06-07 11:09:00,59.2,58.1,30.33,WNW,296,2.3,2.3,96,0.00,OVC,,0.11,WeatherDisplay:10.37,2013-06-07 15:09:00,
2013-06-07 11:14:00,59.2,58.1,30.33,WNW,298,0.0,0.2,96,0.00,OVC,,0.11,WeatherDisplay:10.37,2013-06-07 15:14:00,
2013-06-07 11:19:00,59.4,58.0,30.33,WNW,302,2.3,2.3,95,0.00,OVC,,0.11,WeatherDisplay:10.37,2013-06-07 15:19:00,
2013-06-07 11:24:00,59.7,58.6,30.33,West,281,1.2,0.0,96,0.00,OVC,,0.11,WeatherDisplay:10.37,2013-06-07 15:24:00,
2013-06-07 11:29:00,59.8,58.4,30.33,West,281,0.0,0.0,95,0.00,OVC,,0.11,WeatherDisplay:10.37,2013-06-07 15:29:00,
2013-06-07 11:34:00,59.9,58.5,30.33,West,269,0.0,0.0,95,0.00,OVC,,0.11,WeatherDisplay:10.37,2013-06-07 15:34:00,
2013-06-07 11:39:00,60.0,58.6,30.33,West,269,1.2,0.0,95,0.00,OVC,,0.11,WeatherDisplay:10.37,2013-06-07 15:39:00,
2013-06-07 11:44:00,60.0,58.6,30.33,West,272,1.2,0.0,95,0.00,OVC,,0.11,WeatherDisplay:10.37,2013-06-07 15:44:00,
2013-06-07 11:49:00,60.1,58.7,30.32,West,272,1.2,1.2,95,0.00,OVC,,0.11,WeatherDisplay:10.37,2013-06-07 15:49:00,
2013-06-07 11:54:00,60.3,58.9,30.33,West,272,1.0,0.0,95,0.00,OVC,,0.11,WeatherDisplay:10.37,2013-06-07 15:54:00,
2013-06-07 11:59:00,60.3,58.9,30.33,NNW,334,1.2,1.2,95,0.00,OVC,,0.11,WeatherDisplay:10.37,2013-06-07 15:59:00,
2013-06-07 12:04:00,60.3,58.6,30.33,WNW,296,0.0,0.1,94,0.00,OVC,,0.11,WeatherDisplay:10.37,2013-06-07 16:04:00,
2013-06-07 12:09:00,60.0,58.3,30.32,WNW,291,1.2,1.2,94,0.00,OVC,,0.11,WeatherDisplay:10.37,2013-06-07 16:09:00,
2013-06-07 12:14:00,60.3,58.9,30.32,NW,314,0.0,0.0,95,0.00,OVC,,0.11,WeatherDisplay:10.37,2013-06-07 16:14:00,
2013-06-07 12:19:00,60.4,59.0,30.32,NW,314,1.0,1.0,95,0.00,OVC,,0.11,WeatherDisplay:10.37,2013-06-07 16:19:00,
2013-06-07 12:24:00,60.4,58.7,30.32,NW,314,1.0,1.0,94,0.00,OVC,,0.11,WeatherDisplay:10.37,2013-06-07 16:24:00,
2013-06-07 12:29:00,60.4,58.7,30.32,NW,314,0.0,0.0,94,0.00,OVC,,0.11,WeatherDisplay:10.37,2013-06-07 16:29:00,
2013-06-07 12:34:00,60.3,58.6,30.32,NW,314,0.0,0.0,94,0.00,OVC,,0.11,WeatherDisplay:10.37,2013-06-07 16:34:00,
2013-06-07 12:39:00,60.3,58.6,30.32,NW,314,0.0,0.0,94,0.00,OVC,,0.11,WeatherDisplay:10.37,2013-06-07 16:39:00,
2013-06-07 12:44:00,60.3,58.6,30.32,NW,317,0.0,0.0,94,0.00,OVC,,0.11,WeatherDisplay:10.37,2013-06-07 16:44:00,
2013-06-07 12:49:00,60.2,58.5,30.31,NW,317,1.2,0.0,94,0.00,OVC,,0.11,WeatherDisplay:10.37,2013-06-07 16:49:00,
2013-06-07 12:54:00,60.1,58.4,30.31,WNW,290,1.0,0.0,94,0.00,OVC,,0.11,WeatherDisplay:10.37,2013-06-07 16:54:00,
2013-06-07 12:59:00,60.1,58.7,30.31,WNW,294,0.0,0.0,95,0.00,OVC,,0.11,WeatherDisplay:10.37,2013-06-07 16:59:00,
2013-06-07 13:04:00,60.3,58.9,30.31,WNW,294,0.0,0.0,95,0.00,OVC,,0.11,WeatherDisplay:10.37,2013-06-07 17:04:00,
2013-06-07 13:09:00,60.4,59.0,30.31,WNW,294,0.0,0.0,95,0.00,OVC,,0.11,WeatherDisplay:10.37,2013-06-07 17:09:00,
2013-06-07 13:14:00,60.3,58.9,30.31,WNW,294,0.0,0.0,95,0.00,OVC,,0.11,WeatherDisplay:10.37,2013-06-07 17:14:00,
2013-06-07 13:19:00,60.1,58.7,30.31,WNW,294,0.0,0.0,95,0.00,OVC,,0.11,WeatherDisplay:10.37,2013-06-07 17:19:00,
2013-06-07 13:24:00,60.3,59.2,30.31,WNW,293,0.0,0.0,96,0.00,OVC,,0.11,WeatherDisplay:10.37,2013-06-07 17:24:00,
2013-06-07 13:29:00,60.3,58.9,30.31,WNW,294,1.2,0.0,95,0.00,OVC,,0.11,WeatherDisplay:10.37,2013-06-07 17:29:00,
2013-06-07 13:34:00,60.3,58.9,30.31,WNW,300,0.0,0.0,95,0.00,OVC,,0.11,WeatherDisplay:10.37,2013-06-07 17:34:00,
2013-06-07 13:39:00,60.2,58.5,30.31,WNW,300,2.3,0.0,94,0.00,OVC,,0.11,WeatherDisplay:10.37,2013-06-07 17:39:00,
2013-06-07 13:44:00,60.4,59.0,30.31,WNW,300,0.0,0.0,95,0.00,OVC,,0.11,WeatherDisplay:10.37,2013-06-07 17:44:00,
2013-06-07 13:49:00,60.3,58.6,30.30,WNW,296,1.2,1.2,94,0.00,OVC,,0.11,WeatherDisplay:10.37,2013-06-07 17:49:00,
2013-06-07 13:55:00,60.2,58.8,30.30,WNW,296,1.2,0.0,95,0.00,OVC,,0.11,WeatherDisplay:10.37,2013-06-07 17:55:00,
2013-06-07 14:00:00,60.1,58.7,30.31,WNW,295,1.2,1.2,95,0.00,OVC,,0.11,WeatherDisplay:10.37,2013-06-07 18:00:00,
2013-06-07 14:05:00,59.9,58.5,30.31,WNW,295,1.2,1.2,95,0.00,OVC,,0.11,WeatherDisplay:10.37,2013-06-07 18:05:00,
2013-06-07 14:10:00,59.8,58.4,30.30,WNW,297,0.0,0.0,95,0.00,OVC,,0.11,WeatherDisplay:10.37,2013-06-07 18:10:00,
2013-06-07 14:15:00,59.6,58.2,30.31,WNW,300,3.5,3.5,95,0.00,OVC,,0.11,WeatherDisplay:10.37,2013-06-07 18:15:00,
2013-06-07 14:21:00,59.5,58.1,30.30,NW,308,3.5,3.5,95,0.00,OVC,,0.11,WeatherDisplay:10.37,2013-06-07 18:21:00,
2013-06-07 14:26:00,59.5,58.4,30.30,NW,308,2.3,2.3,96,0.00,OVC,,0.11,WeatherDisplay:10.37,2013-06-07 18:26:00,
2013-06-07 14:31:00,59.4,58.3,30.30,NW,308,1.2,1.2,96,0.00,OVC,,0.11,WeatherDisplay:10.37,2013-06-07 18:31:00,
2013-06-07 14:37:00,59.5,58.4,30.30,NW,308,1.2,0.0,96,0.00,OVC,,0.11,WeatherDisplay:10.37,2013-06-07 18:37:00,
2013-06-07 14:42:00,59.4,58.3,30.30,NW,309,1.2,1.2,96,0.01,RA,,0.12,WeatherDisplay:10.37,2013-06-07 18:42:00,
2013-06-07 14:47:00,59.3,58.2,30.30,NW,309,1.0,1.0,96,0.01,RA,,0.12,WeatherDisplay:10.37,2013-06-07 18:47:00,
2013-06-07 14:53:00,59.4,58.3,30.30,WNW,298,0.0,0.0,96,0.01,OVC,,0.12,WeatherDisplay:10.37,2013-06-07 18:53:00,
2013-06-07 14:58:00,59.4,58.3,30.30,WNW,298,1.2,1.2,96,0.01,OVC,,0.12,WeatherDisplay:10.37,2013-06-07 18:58:00,
2013-06-07 15:03:00,59.4,58.3,30.30,WNW,298,0.0,0.0,96,0.01,OVC,,0.12,WeatherDisplay:10.37,2013-06-07 19:03:00,
2013-06-07 15:09:00,59.4,58.3,30.30,WNW,287,3.5,3.5,96,0.01,OVC,,0.12,WeatherDisplay:10.37,2013-06-07 19:09:00,
2013-06-07 15:14:00,59.3,58.2,30.30,NNW,328,1.2,0.0,96,0.01,OVC,,0.12,WeatherDisplay:10.37,2013-06-07 19:14:00,
2013-06-07 15:19:00,59.3,58.2,30.30,WNW,303,1.2,1.2,96,0.01,OVC,,0.12,WeatherDisplay:10.37,2013-06-07 19:19:00,
2013-06-07 15:25:00,59.2,58.1,30.30,WNW,303,0.0,0.0,96,0.01,OVC,,0.12,WeatherDisplay:10.37,2013-06-07 19:25:00,
2013-06-07 15:31:00,59.3,58.2,30.30,WNW,303,0.0,0.0,96,0.01,OVC,,0.12,WeatherDisplay:10.37,2013-06-07 19:31:00,
2013-06-07 15:36:00,59.3,58.2,30.30,WNW,303,0.0,0.0,96,0.01,OVC,,0.12,WeatherDisplay:10.37,2013-06-07 19:36:00,
2013-06-07 15:41:00,59.4,58.3,30.29,WNW,303,0.0,0.0,96,0.00,OVC,,0.12,WeatherDisplay:10.37,2013-06-07 19:41:00,
2013-06-07 15:47:00,59.5,58.4,30.29,WNW,303,0.0,0.0,96,0.00,OVC,,0.12,WeatherDisplay:10.37,2013-06-07 19:47:00,
2013-06-07 15:52:00,59.7,58.6,30.29,WNW,303,0.0,0.0,96,0.00,OVC,,0.12,WeatherDisplay:10.37,2013-06-07 19:52:00,
2013-06-07 15:57:00,59.7,58.6,30.28,WNW,303,0.0,0.0,96,0.00,OVC,,0.13,WeatherDisplay:10.37,2013-06-07 19:57:00,
2013-06-07 16:02:00,59.7,58.6,30.28,NW,304,2.3,0.0,96,0.01,RA,,0.13,WeatherDisplay:10.37,2013-06-07 20:02:00,
2013-06-07 16:08:00,59.6,58.5,30.29,NW,304,1.2,1.2,96,0.01,OVC,,0.13,WeatherDisplay:10.37,2013-06-07 20:08:00,
2013-06-07 16:13:00,59.6,58.5,30.29,NW,304,0.0,0.0,96,0.01,OVC,,0.13,WeatherDisplay:10.37,2013-06-07 20:13:00,
2013-06-07 16:18:00,59.5,58.4,30.29,NW,304,0.0,0.0,96,0.01,OVC,,0.13,WeatherDisplay:10.37,2013-06-07 20:18:00,
2013-06-07 16:23:00,59.5,58.4,30.28,NW,304,0.0,0.0,96,0.01,OVC,,0.13,WeatherDisplay:10.37,2013-06-07 20:23:00,
2013-06-07 16:28:00,59.5,58.4,30.28,NW,304,1.2,1.2,96,0.01,OVC,,0.13,WeatherDisplay:10.37,2013-06-07 20:28:00,
2013-06-07 16:33:00,59.5,58.4,30.29,NW,304,0.0,0.0,96,0.01,OVC,,0.13,WeatherDisplay:10.37,2013-06-07 20:33:00,
2013-06-07 16:38:00,59.5,58.4,30.28,NW,304,0.0,0.0,96,0.01,OVC,,0.13,WeatherDisplay:10.37,2013-06-07 20:38:00,
2013-06-07 16:43:00,59.5,58.4,30.28,NW,304,0.0,0.0,96,0.01,OVC,,0.13,WeatherDisplay:10.37,2013-06-07 20:43:00,
2013-06-07 16:49:00,59.5,58.4,30.28,NW,304,1.2,0.0,96,0.01,OVC,,0.13,WeatherDisplay:10.37,2013-06-07 20:49:00,
2013-06-07 16:54:00,59.6,58.5,30.28,NW,304,0.0,0.0,96,0.01,OVC,,0.13,WeatherDisplay:10.37,2013-06-07 20:54:00,
2013-06-07 16:59:00,59.7,58.6,30.28,NW,304,0.0,0.0,96,0.00,OVC,,0.13,WeatherDisplay:10.37,2013-06-07 20:59:00,
2013-06-07 17:04:00,59.6,58.5,30.28,NW,304,0.0,0.0,96,0.00,-RA,,0.13,WeatherDisplay:10.37,2013-06-07 21:04:00,
2013-06-07 17:10:00,59.8,58.7,30.28,NW,304,0.0,0.0,96,0.00,-RA,,0.13,WeatherDisplay:10.37,2013-06-07 21:10:00,
2013-06-07 17:15:00,59.7,58.6,30.28,SE,134,1.2,1.2,96,0.00,-RA,,0.13,WeatherDisplay:10.37,2013-06-07 21:15:00,
2013-06-07 17:20:00,59.6,58.5,30.28,NNW,331,1.0,1.0,96,0.00,-RA,,0.13,WeatherDisplay:10.37,2013-06-07 21:20:00,
2013-06-07 17:25:00,59.3,58.2,30.28,NNW,331,0.0,0.0,96,0.00,-RA,,0.13,WeatherDisplay:10.37,2013-06-07 21:25:00,
2013-06-07 17:31:00,59.3,58.2,30.28,NNW,331,0.0,0.0,96,0.00,-RA,,0.13,WeatherDisplay:10.37,2013-06-07 21:31:00,
2013-06-07 17:36:00,59.2,58.1,30.28,NNW,331,0.0,0.0,96,0.00,-RA,,0.13,WeatherDisplay:10.37,2013-06-07 21:36:00,
2013-06-07 17:41:00,59.1,58.0,30.28,NNW,331,1.0,1.0,96,0.00,-RA,,0.13,WeatherDisplay:10.37,2013-06-07 21:41:00,
2013-06-07 17:46:00,59.1,58.2,30.27,NNW,331,0.0,0.0,97,0.00,-RA,,0.13,WeatherDisplay:10.37,2013-06-07 21:46:00,
2013-06-07 17:51:00,58.9,57.8,30.27,NW,314,1.2,0.0,96,0.00,-RA,,0.13,WeatherDisplay:10.37,2013-06-07 21:51:00,
2013-06-07 17:57:00,58.7,57.6,30.27,NW,314,1.2,0.0,96,0.00,-RA,,0.13,WeatherDisplay:10.37,2013-06-07 21:57:00,
2013-06-07 18:02:00,58.5,57.4,30.27,NW,314,1.2,0.0,96,0.00,-RA,,0.13,WeatherDisplay:10.37,2013-06-07 22:02:00,
2013-06-07 18:07:00,58.4,57.6,30.27,NW,314,1.2,1.2,97,0.00,-RA,,0.13,WeatherDisplay:10.37,2013-06-07 22:07:00,
2013-06-07 18:13:00,58.4,57.6,30.26,NW,314,0.0,0.0,97,0.00,-RA,,0.13,WeatherDisplay:10.37,2013-06-07 22:13:00,
2013-06-07 18:18:00,58.2,57.4,30.26,NW,314,0.0,0.0,97,0.00,-RA,,0.13,WeatherDisplay:10.37,2013-06-07 22:18:00,
2013-06-07 18:23:00,58.2,57.4,30.27,NW,314,1.2,1.2,97,0.00,-RA,,0.13,WeatherDisplay:10.37,2013-06-07 22:23:00,
2013-06-07 18:28:00,58.0,57.2,30.27,NW,314,1.2,1.2,97,0.00,-RA,,0.13,WeatherDisplay:10.37,2013-06-07 22:28:00,
2013-06-07 18:33:00,58.0,57.2,30.27,NW,314,0.0,0.0,97,0.00,-RA,,0.13,WeatherDisplay:10.37,2013-06-07 22:33:00,
2013-06-07 18:39:00,57.9,57.1,30.27,NW,314,0.0,0.0,97,0.00,-RA,,0.13,WeatherDisplay:10.37,2013-06-07 22:39:00,
2013-06-07 18:44:00,57.8,57.0,30.27,WNW,283,1.2,1.2,97,0.00,-RA,,0.13,WeatherDisplay:10.37,2013-06-07 22:44:00,
2013-06-07 18:49:00,57.7,56.9,30.27,WNW,283,1.2,1.2,97,0.00,-RA,,0.13,WeatherDisplay:10.37,2013-06-07 22:49:00,
2013-06-07 18:54:00,57.5,56.7,30.27,WNW,298,2.3,0.0,97,0.00,-RA,,0.13,WeatherDisplay:10.37,2013-06-07 22:54:00,
2013-06-07 18:59:00,57.5,56.7,30.27,WNW,299,0.0,0.0,97,0.01,-RA,,0.14,WeatherDisplay:10.37,2013-06-07 22:59:00,
2013-06-07 19:04:00,57.5,56.7,30.27,WNW,298,1.2,0.0,97,0.01,RA,,0.14,WeatherDisplay:10.37,2013-06-07 23:04:00,
2013-06-07 19:09:00,57.5,56.7,30.27,WNW,299,0.0,0.0,97,0.01,OVC,,0.14,WeatherDisplay:10.37,2013-06-07 23:09:00,
2013-06-07 19:14:00,57.4,56.6,30.27,WNW,299,0.0,0.0,97,0.01,OVC,,0.14,WeatherDisplay:10.37,2013-06-07 23:14:00,
2013-06-07 19:20:00,57.4,56.6,30.27,WNW,299,1.0,1.0,97,0.01,OVC,,0.14,WeatherDisplay:10.37,2013-06-07 23:20:00,
2013-06-07 19:25:00,57.4,56.6,30.27,WNW,299,1.0,1.0,97,0.01,OVC,,0.14,WeatherDisplay:10.37,2013-06-07 23:25:00,
2013-06-07 19:30:00,57.4,56.6,30.27,WNW,299,0.0,0.0,97,0.01,OVC,,0.14,WeatherDisplay:10.37,2013-06-07 23:30:00,
2013-06-07 19:36:00,57.3,56.5,30.27,WNW,283,1.2,0.0,97,0.01,OVC,,0.14,WeatherDisplay:10.37,2013-06-07 23:36:00,
2013-06-07 19:41:00,57.2,56.4,30.28,WNW,283,1.2,0.0,97,0.01,OVC,,0.14,WeatherDisplay:10.37,2013-06-07 23:41:00,
2013-06-07 19:47:00,57.2,56.4,30.28,WNW,283,0.0,0.0,97,0.01,OVC,,0.14,WeatherDisplay:10.37,2013-06-07 23:47:00,
2013-06-07 19:52:00,57.1,56.3,30.27,WNW,283,0.0,0.0,97,0.02,RA,,0.15,WeatherDisplay:10.37,2013-06-07 23:52:00,
2013-06-07 19:57:00,57.2,56.4,30.27,WNW,283,0.0,0.0,97,0.01,RA,,0.15,WeatherDisplay:10.37,2013-06-07 23:57:00,
2013-06-07 20:03:00,57.0,56.2,30.27,WNW,283,0.0,0.0,97,0.01,-RA,,0.15,WeatherDisplay:10.37,2013-06-08 00:03:00,
2013-06-07 20:08:00,56.9,56.1,30.28,WNW,283,0.0,0.0,97,0.01,-RA,,0.15,WeatherDisplay:10.37,2013-06-08 00:08:00,
2013-06-07 20:13:00,56.9,56.1,30.28,WNW,283,0.0,0.0,97,0.01,-RA,,0.15,WeatherDisplay:10.37,2013-06-08 00:13:00,
2013-06-07 20:18:00,56.8,56.0,30.28,WNW,283,0.0,0.0,97,0.01,-RA,,0.15,WeatherDisplay:10.37,2013-06-08 00:18:00,
2013-06-07 20:23:00,56.7,55.9,30.28,WNW,283,0.0,0.0,97,0.01,-RA,,0.15,WeatherDisplay:10.37,2013-06-08 00:23:00,
2013-06-07 20:28:00,56.6,55.8,30.27,WNW,283,0.0,0.0,97,0.01,-RA,,0.15,WeatherDisplay:10.37,2013-06-08 00:28:00,
2013-06-07 20:34:00,56.5,55.7,30.27,WNW,284,2.3,0.0,97,0.01,-RA,,0.15,WeatherDisplay:10.37,2013-06-08 00:34:00,
2013-06-07 20:39:00,56.4,55.6,30.27,WNW,302,0.0,0.0,97,0.01,-RA,,0.16,WeatherDisplay:10.37,2013-06-08 00:39:00,
2013-06-07 20:44:00,56.3,55.5,30.27,WNW,302,1.0,1.0,97,0.02,-RA,,0.16,WeatherDisplay:10.37,2013-06-08 00:44:00,
2013-06-07 20:49:00,56.3,55.5,30.27,WNW,302,1.2,0.0,97,0.02,-RA,,0.16,WeatherDisplay:10.37,2013-06-08 00:49:00,
2013-06-07 20:54:00,56.2,55.4,30.27,WNW,302,0.0,0.0,97,0.01,-RA,,0.16,WeatherDisplay:10.37,2013-06-08 00:54:00,
2013-06-07 21:00:00,56.2,55.6,30.27,WNW,302,0.0,0.0,98,0.01,-RA,,0.16,WeatherDisplay:10.37,2013-06-08 01:00:00,
2013-06-07 21:05:00,56.1,55.5,30.27,WNW,302,0.0,0.0,98,0.01,-RA,,0.16,WeatherDisplay:10.37,2013-06-08 01:05:00,
2013-06-07 21:10:00,56.1,55.5,30.27,WNW,302,0.0,0.0,98,0.01,-RA,,0.16,WeatherDisplay:10.37,2013-06-08 01:10:00,
2013-06-07 21:16:00,55.9,55.3,30.27,WNW,302,1.2,0.0,98,0.01,-RA,,0.16,WeatherDisplay:10.37,2013-06-08 01:16:00,
2013-06-07 21:21:00,55.9,55.3,30.28,WNW,302,0.0,0.0,98,0.01,-RA,,0.16,WeatherDisplay:10.37,2013-06-08 01:21:00,
2013-06-07 21:26:00,55.8,55.2,30.28,WNW,301,0.0,0.0,98,0.01,-RA,,0.16,WeatherDisplay:10.37,2013-06-08 01:26:00,
2013-06-07 21:32:00,55.9,55.3,30.28,WNW,302,1.2,1.2,98,0.01,-RA,,0.16,WeatherDisplay:10.37,2013-06-08 01:32:00,
2013-06-07 21:37:00,55.8,55.2,30.28,WNW,302,2.3,2.3,98,0.01,-RA,,0.16,WeatherDisplay:10.37,2013-06-08 01:37:00,
2013-06-07 21:43:00,55.7,55.1,30.28,WNW,302,0.0,0.0,98,0.00,-RA,,0.16,WeatherDisplay:10.37,2013-06-08 01:43:00,
2013-06-07 21:48:00,55.7,55.1,30.28,WNW,302,0.0,0.0,98,0.00,-RA,,0.16,WeatherDisplay:10.37,2013-06-08 01:48:00,
2013-06-07 21:53:00,55.7,55.1,30.28,WNW,300,1.2,1.2,98,0.00,-RA,,0.16,WeatherDisplay:10.37,2013-06-08 01:53:00,
2013-06-07 21:58:00,55.6,55.0,30.28,WNW,295,0.0,0.0,98,0.00,-RA,,0.16,WeatherDisplay:10.37,2013-06-08 01:58:00,
2013-06-07 22:03:00,55.6,55.0,30.28,WNW,295,1.2,0.0,98,0.00,-RA,,0.16,WeatherDisplay:10.37,2013-06-08 02:03:00,
2013-06-07 22:08:00,55.6,55.0,30.28,WNW,295,1.2,0.0,98,0.00,-RA,,0.16,WeatherDisplay:10.37,2013-06-08 02:08:00,
2013-06-07 22:13:00,55.6,55.0,30.28,WNW,295,0.0,0.0,98,0.00,-RA,,0.16,WeatherDisplay:10.37,2013-06-08 02:13:00,
2013-06-07 22:18:00,55.6,55.0,30.28,WNW,295,0.0,0.0,98,0.00,-RA,,0.16,WeatherDisplay:10.37,2013-06-08 02:18:00,
2013-06-07 22:23:00,55.6,55.0,30.28,WNW,295,0.0,0.0,98,0.00,-RA,,0.16,WeatherDisplay:10.37,2013-06-08 02:23:00,
2013-06-07 22:28:00,55.5,54.9,30.28,WNW,295,0.0,0.0,98,0.00,-RA,,0.16,WeatherDisplay:10.37,2013-06-08 02:28:00,
2013-06-07 22:33:00,55.5,54.9,30.28,WNW,295,0.0,0.0,98,0.00,-RA,,0.16,WeatherDisplay:10.37,2013-06-08 02:33:00,
2013-06-07 22:39:00,55.5,54.9,30.28,WNW,295,0.0,0.0,98,0.00,-RA,,0.16,WeatherDisplay:10.37,2013-06-08 02:39:00,
2013-06-07 22:44:00,55.5,54.9,30.28,WNW,295,0.0,0.0,98,0.00,-RA,,0.16,WeatherDisplay:10.37,2013-06-08 02:44:00,
2013-06-07 22:51:00,55.6,55.0,30.28,WNW,295,0.0,0.0,98,0.00,-RA,,0.16,WeatherDisplay:10.37,2013-06-08 02:51:00,
2013-06-07 22:57:00,55.6,55.0,30.28,WNW,295,0.0,0.0,98,0.00,-RA,,0.16,WeatherDisplay:10.37,2013-06-08 02:57:00,
2013-06-07 23:03:00,55.6,55.0,30.28,WNW,295,0.0,0.0,98,0.00,OVC,,0.16,WeatherDisplay:10.37,2013-06-08 03:03:00,
2013-06-07 23:08:00,55.6,55.0,30.28,WNW,295,1.2,0.0,98,0.00,OVC,,0.16,WeatherDisplay:10.37,2013-06-08 03:08:00,
2013-06-07 23:13:00,55.5,54.9,30.28,WNW,295,1.2,1.2,98,0.00,OVC,,0.16,WeatherDisplay:10.37,2013-06-08 03:13:00,
2013-06-07 23:19:00,55.5,54.9,30.28,WNW,295,1.2,1.2,98,0.00,OVC,,0.16,WeatherDisplay:10.37,2013-06-08 03:19:00,
2013-06-07 23:24:00,55.5,54.9,30.28,WNW,295,0.0,0.0,98,0.00,OVC,,0.16,WeatherDisplay:10.37,2013-06-08 03:24:00,
2013-06-07 23:29:00,55.5,54.9,30.28,WNW,295,1.2,1.2,98,0.00,OVC,,0.16,WeatherDisplay:10.37,2013-06-08 03:29:00,
2013-06-07 23:34:00,55.5,54.9,30.28,WNW,295,1.0,0.0,98,0.00,OVC,,0.16,WeatherDisplay:10.37,2013-06-08 03:34:00,
2013-06-07 23:40:00,55.5,54.9,30.28,WNW,295,1.2,0.0,98,0.00,OVC,,0.16,WeatherDisplay:10.37,2013-06-08 03:40:00,
2013-06-07 23:45:00,55.5,54.9,30.28,WNW,295,1.2,0.0,98,0.00,OVC,,0.16,WeatherDisplay:10.37,2013-06-08 03:45:00,
2013-06-07 23:50:00,55.5,54.9,30.28,WNW,295,0.0,0.0,98,0.00,OVC,,0.16,WeatherDisplay:10.37,2013-06-08 03:50:00,
2013-06-07 23:55:00,55.6,55.0,30.28,WNW,295,0.0,0.0,98,0.00,OVC,,0.16,WeatherDisplay:10.37,2013-06-08 03:55:00,